�������l�o���
Date,Time,MP-1(��Sv/h),MP-2(��Sv/h),MP-3(��Sv/h),MP-4(��Sv/h),MP-5(��Sv/h),MP-6(��Sv/h),MP-7(��Sv/h),MP-8(��Sv/h),����,����(m/s),���J
2021/09/11,00:00,0.588,0.876,0.556,1.062,0.750,0.360,0.621,0.582,-,CALM,��
2021/09/11,00:10,0.588,0.878,0.555,1.062,0.749,0.361,0.620,0.585,-,CALM,��
2021/09/11,00:20,0.588,0.878,0.555,1.063,0.749,0.361,0.621,0.584,�쓌,0.6,��
2021/09/11,00:30,0.588,0.878,0.556,1.063,0.751,0.362,0.621,0.585,�쓌,0.6,��
2021/09/11,00:40,0.587,0.879,0.555,1.061,0.748,0.360,0.621,0.582,-,CALM,��
2021/09/11,00:50,0.588,0.879,0.555,1.059,0.749,0.362,0.621,0.583,-,CALM,��
2021/09/11,01:00,0.589,0.878,0.556,1.062,0.750,0.361,0.622,0.583,-,CALM,��
2021/09/11,01:10,0.588,0.876,0.555,1.065,0.749,0.361,0.622,0.583,-,CALM,��
2021/09/11,01:20,0.589,0.876,0.557,1.061,0.751,0.362,0.622,0.584,-,CALM,��
2021/09/11,01:30,0.588,0.877,0.555,1.060,0.749,0.361,0.623,0.583,-,CALM,��
2021/09/11,01:40,0.589,0.876,0.557,1.063,0.750,0.360,0.621,0.583,-,CALM,��
2021/09/11,01:50,0.589,0.879,0.555,1.063,0.751,0.360,0.621,0.583,-,CALM,��
2021/09/11,02:00,0.587,0.876,0.556,1.062,0.750,0.361,0.621,0.584,�k�k��,0.8,��
2021/09/11,02:10,0.588,0.874,0.556,1.062,0.749,0.361,0.622,0.582,�k�k��,0.6,��
2021/09/11,02:20,0.589,0.876,0.556,1.064,0.751,0.361,0.621,0.583,-,CALM,��
2021/09/11,02:30,0.588,0.877,0.556,1.060,0.749,0.361,0.621,0.583,���쓌,0.6,��
2021/09/11,02:40,0.591,0.876,0.556,1.062,0.751,0.361,0.621,0.583,-,CALM,��
2021/09/11,02:50,0.589,0.877,0.555,1.061,0.750,0.362,0.623,0.585,-,CALM,��
2021/09/11,03:00,0.589,0.876,0.555,1.062,0.750,0.361,0.622,0.583,�쓌,0.6,��
2021/09/11,03:10,0.589,0.877,0.556,1.060,0.752,0.362,0.621,0.583,-,CALM,�L
2021/09/11,03:20,0.588,0.878,0.555,1.062,0.750,0.361,0.622,0.583,-,CALM,�L
2021/09/11,03:30,0.588,0.876,0.557,1.062,0.750,0.361,0.621,0.584,-,CALM,��
2021/09/11,03:40,0.591,0.875,0.555,1.058,0.749,0.361,0.622,0.584,-,CALM,�L
2021/09/11,03:50,0.587,0.878,0.556,1.062,0.751,0.361,0.621,0.583,�쓌,0.8,�L
2021/09/11,04:00,0.589,0.877,0.557,1.062,0.749,0.363,0.621,0.582,-,CALM,�L
2021/09/11,04:10,0.589,0.878,0.556,1.064,0.750,0.361,0.621,0.583,-,CALM,�L
2021/09/11,04:20,0.589,0.878,0.554,1.061,0.749,0.361,0.620,0.583,��쓌,0.6,�L
2021/09/11,04:30,0.589,0.877,0.555,1.059,0.749,0.360,0.622,0.584,�쓌,0.6,�L
2021/09/11,04:40,0.589,0.878,0.557,1.060,0.749,0.362,0.621,0.583,-,CALM,�L
2021/09/11,04:50,0.588,0.877,0.555,1.064,0.751,0.362,0.621,0.582,��쓌,0.8,�L
2021/09/11,05:00,0.589,0.878,0.555,1.060,0.750,0.362,0.623,0.583,-,CALM,�L
2021/09/11,05:10,0.590,0.876,0.559,1.064,0.751,0.362,0.622,0.583,-,CALM,�L
2021/09/11,05:20,0.590,0.876,0.557,1.065,0.749,0.363,0.620,0.584,-,CALM,�L
2021/09/11,05:30,0.590,0.878,0.557,1.062,0.750,0.362,0.621,0.583,-,CALM,�L
2021/09/11,05:40,0.590,0.877,0.557,1.063,0.748,0.362,0.621,0.583,-,CALM,�L
2021/09/11,05:50,0.590,0.877,0.559,1.063,0.749,0.361,0.621,0.582,�쐼,0.6,�L
2021/09/11,06:00,0.588,0.875,0.555,1.062,0.747,0.361,0.619,0.582,�쐼,0.9,�L
2021/09/11,06:10,0.589,0.875,0.555,1.061,0.749,0.362,0.621,0.584,��쐼,1.2,�L
2021/09/11,06:20,0.588,0.875,0.555,1.063,0.749,0.361,0.621,0.583,��,1.7,�L
2021/09/11,06:30,0.588,0.877,0.555,1.063,0.749,0.363,0.620,0.583,��,1.7,�L
2021/09/11,06:40,0.589,0.875,0.556,1.063,0.749,0.362,0.618,0.581,��,2.3,�L
2021/09/11,06:50,0.588,0.874,0.556,1.062,0.749,0.361,0.620,0.580,��,2.0,�L
2021/09/11,07:00,0.589,0.875,0.557,1.062,0.750,0.361,0.618,0.582,��,2.3,�L
2021/09/11,07:10,0.589,0.876,0.556,1.062,0.750,0.361,0.619,0.582,��,2.5,�L
2021/09/11,07:20,0.588,0.875,0.557,1.064,0.748,0.360,0.618,0.580,��,5.2,�L
2021/09/11,07:30,0.588,0.873,0.555,1.063,0.747,0.361,0.618,0.580,��,5.3,�L
2021/09/11,07:40,0.587,0.873,0.556,1.064,0.747,0.360,0.618,0.580,��,4.1,�L
2021/09/11,07:50,0.587,0.873,0.555,1.062,0.747,0.362,0.618,0.580,��,3.6,��
2021/09/11,08:00,0.588,0.873,0.554,1.063,0.746,0.359,0.618,0.581,��,3.5,�L
2021/09/11,08:10,0.588,0.874,0.555,1.061,0.747,0.360,0.617,0.581,��,5.2,�L
2021/09/11,08:20,0.588,0.873,0.555,1.061,0.745,0.358,0.618,0.582,��,5.9,�L
2021/09/11,08:30,0.588,0.873,0.554,1.059,0.747,0.359,0.619,0.582,��,6.4,��
2021/09/11,08:40,0.588,0.873,0.555,1.062,0.747,0.360,0.617,0.581,��,5.5,��
2021/09/11,08:50,0.585,0.873,0.554,1.057,0.745,0.360,0.617,0.581,��쐼,5.4,��
2021/09/11,09:00,0.586,0.872,0.554,1.062,0.746,0.359,0.618,0.579,��,5.4,��
2021/09/11,09:10,0.587,0.872,0.557,1.059,0.748,0.358,0.618,0.579,��쐼,4.6,��
2021/09/11,09:20,0.586,0.874,0.554,1.063,0.746,0.361,0.619,0.579,��쐼,4.1,�L
2021/09/11,09:30,0.586,0.873,0.556,1.061,0.746,0.359,0.618,0.579,�쐼,3.3,��
2021/09/11,09:40,0.585,0.874,0.555,1.061,0.747,0.360,0.619,0.580,���쐼,1.5,��
2021/09/11,09:50,0.588,0.873,0.555,1.061,0.747,0.361,0.617,0.580,��,1.4,��
2021/09/11,10:00,0.588,0.874,0.556,1.062,0.746,0.360,0.619,0.579,���k��,1.9,�L
2021/09/11,10:10,0.589,0.874,0.556,1.060,0.745,0.359,0.619,0.580,�k�k��,2.9,�L
2021/09/11,10:20,0.587,0.873,0.555,1.063,0.747,0.360,0.619,0.580,�k�k��,2.0,�L
2021/09/11,10:30,0.589,0.873,0.555,1.063,0.749,0.362,0.619,0.580,�k�k��,2.3,��
2021/09/11,10:40,0.588,0.874,0.554,1.062,0.748,0.360,0.619,0.580,�k�k��,1.2,�L
2021/09/11,10:50,0.588,0.875,0.555,1.063,0.746,0.361,0.618,0.581,�k��,1.2,�L
2021/09/11,11:00,0.588,0.878,0.555,1.059,0.749,0.360,0.618,0.580,�k�k��,2.3,�L
2021/09/11,11:10,0.588,0.874,0.555,1.064,0.749,0.360,0.619,0.580,�k��,3.1,��
2021/09/11,11:20,0.588,0.873,0.556,1.063,0.748,0.360,0.618,0.582,�k�k��,2.3,��
2021/09/11,11:30,0.588,0.874,0.557,1.061,0.748,0.359,0.621,0.581,�k�k��,1.5,��
2021/09/11,11:40,0.588,0.874,0.555,1.062,0.748,0.360,0.621,0.580,�k��,2.0,��
2021/09/11,11:50,0.589,0.874,0.556,1.062,0.748,0.361,0.621,0.581,�k�k��,1.7,��
2021/09/11,12:00,0.587,0.871,0.555,1.061,0.748,0.360,0.619,0.579,�k,2.0,��
2021/09/11,12:10,0.589,0.874,0.554,1.063,0.748,0.360,0.621,0.581,�k,3.2,��
2021/09/11,12:20,0.589,0.876,0.554,1.062,0.749,0.362,0.621,0.579,�k,2.6,�L
2021/09/11,12:30,0.589,0.873,0.554,1.062,0.749,0.361,0.621,0.579,�k,3.8,�L
2021/09/11,12:40,0.588,0.875,0.555,1.061,0.749,0.361,0.621,0.580,�k,3.2,�L
2021/09/11,12:50,0.588,0.874,0.554,1.061,0.749,0.360,0.621,0.580,�k�k��,3.2,�L
2021/09/11,13:00,0.590,0.875,0.554,1.061,0.749,0.359,0.619,0.581,�k,3.4,��
2021/09/11,13:10,0.589,0.874,0.554,1.062,0.750,0.361,0.621,0.582,�k,2.9,��
2021/09/11,13:20,0.588,0.875,0.555,1.062,0.750,0.360,0.620,0.581,�k,3.7,��
2021/09/11,13:30,0.590,0.873,0.554,1.060,0.748,0.360,0.621,0.581,�k�k��,2.6,��
2021/09/11,13:40,0.589,0.875,0.555,1.060,0.751,0.360,0.621,0.580,�k�k��,3.6,��
2021/09/11,13:50,0.587,0.878,0.555,1.059,0.750,0.360,0.621,0.581,�k,3.3,��
2021/09/11,14:00,0.589,0.877,0.555,1.061,0.752,0.360,0.620,0.581,�k,2.8,��
2021/09/11,14:10,0.591,0.878,0.555,1.064,0.750,0.361,0.621,0.582,�k,2.3,��
2021/09/11,14:20,0.590,0.876,0.555,1.060,0.749,0.360,0.620,0.580,�k,2.0,��
2021/09/11,14:30,0.588,0.877,0.555,1.064,0.749,0.360,0.620,0.580,�k�k��,2.3,��
2021/09/11,14:40,0.589,0.879,0.556,1.062,0.750,0.359,0.622,0.580,�k�k��,2.8,��
2021/09/11,14:50,0.589,0.877,0.554,1.063,0.749,0.360,0.621,0.580,�k�k��,3.1,��
2021/09/11,15:00,0.588,0.878,0.555,1.062,0.752,0.359,0.622,0.581,�k��,2.3,��
2021/09/11,15:10,0.589,0.877,0.555,1.064,0.752,0.361,0.621,0.581,��,1.7,��
2021/09/11,15:20,0.591,0.879,0.554,1.062,0.750,0.359,0.622,0.580,��,1.7,��
2021/09/11,15:30,0.588,0.877,0.555,1.064,0.751,0.359,0.622,0.581,���쓌,1.5,��
2021/09/11,15:40,0.588,0.877,0.555,1.063,0.752,0.361,0.620,0.581,��쓌,2.2,��
2021/09/11,15:50,0.589,0.881,0.554,1.066,0.751,0.360,0.621,0.580,��쓌,1.9,��
2021/09/11,16:00,0.589,0.879,0.555,1.066,0.751,0.360,0.621,0.581,��쓌,2.3,��
2021/09/11,16:10,0.590,0.879,0.554,1.067,0.752,0.360,0.622,0.581,��쓌,2.0,��
2021/09/11,16:20,0.587,0.879,0.556,1.065,0.752,0.361,0.622,0.583,��쓌,2.3,��
2021/09/11,16:30,0.589,0.882,0.556,1.065,0.749,0.361,0.621,0.579,��쓌,2.3,��
2021/09/11,16:40,0.591,0.883,0.554,1.065,0.750,0.359,0.621,0.582,��쓌,2.3,��
2021/09/11,16:50,0.590,0.879,0.556,1.065,0.753,0.360,0.620,0.582,��쓌,2.3,��
2021/09/11,17:00,0.590,0.881,0.557,1.067,0.750,0.358,0.623,0.581,��쓌,2.0,��
2021/09/11,17:10,0.589,0.880,0.556,1.066,0.752,0.362,0.622,0.583,��쓌,3.1,��
2021/09/11,17:20,0.591,0.880,0.558,1.064,0.751,0.361,0.621,0.584,��쓌,2.9,��
2021/09/11,17:30,0.589,0.882,0.557,1.067,0.751,0.361,0.622,0.582,��쓌,2.6,��
2021/09/11,17:40,0.588,0.882,0.555,1.065,0.749,0.360,0.622,0.582,��쓌,3.0,��
2021/09/11,17:50,0.590,0.880,0.557,1.065,0.750,0.360,0.624,0.582,��,2.5,��
2021/09/11,18:00,0.590,0.882,0.556,1.064,0.749,0.361,0.621,0.582,��,3.0,��
2021/09/11,18:10,0.591,0.881,0.556,1.067,0.751,0.360,0.621,0.583,��,2.5,��
2021/09/11,18:20,0.591,0.879,0.558,1.066,0.749,0.361,0.622,0.584,��,2.9,��
2021/09/11,18:30,0.591,0.883,0.558,1.066,0.751,0.361,0.622,0.582,��,3.3,��
2021/09/11,18:40,0.590,0.880,0.556,1.066,0.753,0.361,0.623,0.583,��쓌,2.8,��
2021/09/11,18:50,0.592,0.883,0.558,1.066,0.752,0.361,0.624,0.584,��쐼,2.8,��
2021/09/11,19:00,0.590,0.880,0.557,1.067,0.752,0.361,0.621,0.583,��,3.4,��
2021/09/11,19:10,0.590,0.882,0.557,1.068,0.754,0.361,0.623,0.583,��,3.6,��
2021/09/11,19:20,0.591,0.884,0.557,1.066,0.753,0.362,0.625,0.585,��,3.2,��
2021/09/11,19:30,0.591,0.882,0.558,1.063,0.752,0.362,0.623,0.584,��쐼,2.6,��
2021/09/11,19:40,0.591,0.883,0.556,1.064,0.752,0.361,0.623,0.584,��쐼,2.0,��
2021/09/11,19:50,0.591,0.882,0.558,1.068,0.754,0.363,0.624,0.583,��,2.5,��
2021/09/11,20:00,0.591,0.884,0.557,1.069,0.753,0.362,0.624,0.583,��,3.5,��
2021/09/11,20:10,0.592,0.881,0.557,1.066,0.752,0.363,0.623,0.585,��,2.8,��
2021/09/11,20:20,0.591,0.882,0.558,1.068,0.754,0.361,0.624,0.583,��,4.4,��
2021/09/11,20:30,0.592,0.883,0.557,1.066,0.752,0.362,0.623,0.583,��,4.4,��
2021/09/11,20:40,0.591,0.881,0.558,1.067,0.754,0.362,0.623,0.583,��,3.8,��
2021/09/11,20:50,0.591,0.881,0.557,1.067,0.752,0.364,0.624,0.583,��쓌,2.9,��
2021/09/11,21:00,0.591,0.882,0.559,1.067,0.753,0.361,0.624,0.583,��,2.9,��
2021/09/11,21:10,0.592,0.882,0.558,1.063,0.753,0.363,0.623,0.582,��,4.0,��
2021/09/11,21:20,0.593,0.882,0.557,1.067,0.754,0.363,0.622,0.584,��,4.3,��
2021/09/11,21:30,0.591,0.882,0.557,1.067,0.751,0.361,0.623,0.582,��,4.7,��
2021/09/11,21:40,0.590,0.882,0.558,1.067,0.752,0.363,0.623,0.583,��,4.3,��
2021/09/11,21:50,0.591,0.881,0.557,1.066,0.753,0.363,0.624,0.582,��,4.7,��
2021/09/11,22:00,0.590,0.881,0.558,1.066,0.753,0.363,0.623,0.583,��쐼,4.8,��
2021/09/11,22:10,0.590,0.882,0.558,1.066,0.751,0.362,0.623,0.582,��쐼,4.7,��
2021/09/11,22:20,0.591,0.880,0.558,1.068,0.754,0.362,0.623,0.584,��,5.8,��
2021/09/11,22:30,0.591,0.883,0.558,1.069,0.756,0.362,0.623,0.583,��쐼,6.1,��
2021/09/11,22:40,0.590,0.882,0.558,1.067,0.753,0.361,0.623,0.583,��쐼,5.7,��
2021/09/11,22:50,0.592,0.882,0.558,1.067,0.753,0.363,0.624,0.583,��쐼,5.5,��
2021/09/11,23:00,0.591,0.882,0.557,1.069,0.753,0.363,0.624,0.582,��,5.0,��
2021/09/11,23:10,0.591,0.880,0.558,1.067,0.754,0.364,0.624,0.584,��,4.4,��
2021/09/11,23:20,0.590,0.880,0.559,1.068,0.755,0.363,0.624,0.584,��쐼,3.0,��
2021/09/11,23:30,0.592,0.880,0.557,1.067,0.753,0.363,0.624,0.584,��쐼,2.3,��
2021/09/11,23:40,0.593,0.882,0.558,1.068,0.753,0.364,0.623,0.583,��쐼,2.6,��
2021/09/11,23:50,0.592,0.879,0.558,1.068,0.755,0.364,0.625,0.583,��,3.2,��
